"TOA5","AWS1","CR1000","7964","CR1000.Std.14","CPU:AWS1_114.CR1","64363","TBL110"
"TIMESTAMP","RECORD","Wind_spd_WVc(1)","Wind_spd_WVc(2)","Air_Temp_Avg","Humidity_Avg","SW_upper_Wm2_Avg","Rain_Tot","Press_Avg","Issui_Tot","Depth_cm","SR50A_Raw","Quality","Ground_Temp_Avg(1)","Ground_Temp_Avg(2)","SW_lower_Wm2_Avg","Albedo_Avg","SWC_per(1)","SWC_per(2)","Period(1)","Period(2)"
"TS","RN","","","","","","","","","","","","","","","","","","",""
"","","WVc","WVc","Avg","Avg","Avg","Tot","Avg","Tot","Smp","Smp","Smp","Avg","Avg","Avg","Avg","Smp","Smp","Smp","Smp"
"2016-07-17 00:00:00",244573,0.254,71.35,16.85,100,0,0,863.6102,0,-1.632,3.102,225,21.04,20.32,0.2235829,0,49.46,56.58,33.16,34.88
"2016-07-17 00:10:00",244574,0.181,48.38,16.86,100,0,0,863.6592,0,-2.869,3.114,191,21.02,20.32,0.2349515,0,49.41,56.52,33.15,34.87
"2016-07-17 00:20:00",244575,0.176,63.38,16.88,100,0,0,863.6448,0,-2.741,3.113,189,21.02,20.32,0.1705294,0,49.46,56.58,33.16,34.88
"2016-07-17 00:30:00",244576,0.562,111.1,16.7,100,0,0,863.5765,0,-2.313,3.11,200,20.95,20.32,0,0,49.41,56.52,33.15,34.87
"2016-07-17 00:40:00",244577,0.11,86.6,16.79,100,0,0,863.4006,0,-2.092,3.106,206,20.99,20.32,0.3296901,0,49.41,56.52,33.15,34.87
"2016-07-17 00:50:00",244578,0.323,114.6,16.98,99.5,0.03930283,0,863.3705,0,-2.037,3.105,212,21.01,20.32,0.4774822,0.321,49.41,56.52,33.15,34.87
"2016-07-17 01:00:00",244579,0.378,113.9,17.06,98.1,0.07860567,0,863.3625,0,-2.91,3.113,194,21,20.32,0.41306,0.643,49.41,56.52,33.15,34.87
"2016-07-17 01:10:00",244580,0.184,160.3,17.25,93.7,0.04323312,0,863.3479,0,-1.61,3.099,212,20.87,20.32,0.4888508,0.498,49.46,56.58,33.16,34.88
"2016-07-17 01:20:00",244581,0.279,126.5,17.42,93,0.01572113,0,863.3626,0,-0.634,3.09,237,20.87,20.32,0.3979018,0.129,49.41,56.52,33.15,34.87
"2016-07-17 01:30:00",244582,0.298,82.1,17.39,93.3,0,0,863.3626,0,-2.023,3.103,200,20.92,20.32,0.3145319,0,49.41,56.52,33.15,34.87
"2016-07-17 01:40:00",244583,0.224,107.6,17.44,93.7,0,0,863.3451,0,-2.229,3.105,198,20.9,20.32,0.231162,0,49.46,56.52,33.16,34.87
"2016-07-17 01:50:00",244584,0.175,166.5,17.41,94.2,0,0,863.1946,0,-1.832,3.1,216,20.84,20.32,0.1591607,0,49.41,56.52,33.15,34.87
"2016-07-17 02:00:00",244585,0.224,3.549,17.53,92.3,0,0,863.1248,0,-2.348,3.105,198,20.78,20.32,0.2955842,0,49.41,56.52,33.15,34.87
"2016-07-17 02:10:00",244586,0.064,356.2,17.54,92.2,0,0,863.1597,0,-2.245,3.104,198,20.76,20.32,0.2084248,0,49.41,56.46,33.15,34.86
"2016-07-17 02:20:00",244587,0.011,121.5,17.61,92.4,0,0,863.0972,0,-2.785,3.109,196,20.81,20.32,0.1553712,0,49.41,56.46,33.15,34.86
"2016-07-17 02:30:00",244588,0.241,77.85,17.49,93.7,0,0,863.105,0,-2.483,3.107,197,20.83,20.31,0.1288444,0,49.41,56.46,33.15,34.86
"2016-07-17 02:40:00",244589,0.178,17.64,17.62,90,0.0235817,0,863.2943,0,-2.737,3.109,182,20.76,20.31,0.3410587,0.193,49.41,56.46,33.15,34.86
"2016-07-17 02:50:00",244590,0.027,124.8,17.56,91.5,0,0,863.3103,0,-2.737,3.109,178,20.67,20.3,0.05684311,0,49.46,56.52,33.16,34.87
"2016-07-17 03:00:00",244591,0.192,146.5,17.38,95.1,0,0,863.1487,0,-2.697,3.11,190,20.67,20.3,0,0,49.41,56.52,33.15,34.87
"2016-07-17 03:10:00",244592,0.091,127.2,17.32,96.1,0,0,863.0905,0,-2.435,3.107,196,20.72,20.27,0.02652679,0,49.41,56.46,33.15,34.86
"2016-07-17 03:20:00",244593,0.273,127.9,17.4,93.4,0,0,862.9619,0,-2.64,3.109,187,20.67,20.26,0.1781084,0,49.41,56.52,33.15,34.87
"2016-07-17 03:30:00",244594,0.304,139.8,17.44,94.1,0,0,862.846,0,-2.325,3.105,196,20.66,20.25,0.2917947,0,49.41,56.46,33.15,34.86
"2016-07-17 03:40:00",244595,0.252,96.6,17.85,89.1,0.1729325,0,862.8515,0,-2.413,3.104,188,20.6,20.25,0.5873788,1.944,49.41,56.46,33.15,34.86
"2016-07-17 03:50:00",244596,0.103,66.58,18.02,87.9,0.08646623,0,862.8574,0,-2.715,3.106,187,20.59,20.27,0.4016913,0.755,49.41,56.46,33.15,34.86
"2016-07-17 04:00:00",244597,0.912,148.1,18.07,87.3,0,0,862.8454,0,-2.922,3.108,190,20.6,20.27,0.3296901,0,49.41,56.46,33.15,34.86
"2016-07-17 04:10:00",244598,0.858,150.5,18.31,85.9,0,0,862.9127,0,-2.708,3.105,187,20.65,20.21,0.3145319,0,49.41,56.46,33.15,34.86
"2016-07-17 04:20:00",244599,0.403,140.1,18.32,86.9,0,0,862.9811,0,-3.009,3.107,186,20.65,20.2,0.07579082,0,49.41,56.46,33.15,34.86
"2016-07-17 04:30:00",244600,0.12,9.08,18.21,88.1,0,0,863.0787,0,-3.072,3.109,181,20.62,20.19,0.003789541,0,49.41,56.46,33.15,34.86
"2016-07-17 04:40:00",244601,0.567,133,18.12,88.8,0.3144227,0,863.0765,0,-2.039,3.099,209,20.5,20.2,0.1970561,0.394,49.35,56.46,33.14,34.86
"2016-07-17 04:50:00",244602,0.778,137.2,18.14,89.1,0.3222832,0,863.0496,0,-2.096,3.1,205,20.51,20.22,0.3259005,0.729,49.35,56.46,33.14,34.86
"2016-07-17 05:00:00",244603,0.495,112.2,18.12,90.4,2.723686,0,863.0751,0,-1.476,3.094,206,20.56,20.23,0.5911684,0.228,49.41,56.46,33.15,34.86
"2016-07-17 05:10:00",244604,0.23,138.1,18.3,90.5,5.942589,0,863.08,0,-2.103,3.098,203,20.58,20.23,1.352866,0.23,49.35,56.46,33.14,34.86
"2016-07-17 05:20:00",244605,0.465,134.3,18.38,91.7,9.723521,0,863.081,0,-2.445,3.102,198,20.5,20.23,1.754557,0.181,49.35,56.46,33.14,34.86
"2016-07-17 05:30:00",244606,0.618,147,18.43,92.5,12.797,0,863.084,0,-2.7,3.104,192,20.47,20.23,2.152459,0.168,49.35,56.41,33.14,34.84
"2016-07-17 05:40:00",244607,0.457,149.3,18.46,93.3,10.78862,0,863.1417,0,-2.389,3.101,191,20.41,20.23,1.709082,0.156,49.41,56.46,33.15,34.86
"2016-07-17 05:50:00",244608,0.751,147.1,18.35,96.3,5.211493,0,863.0925,0,-2.499,3.103,182,20.41,20.23,0.5646349,0.108,49.41,56.41,33.15,34.84
"2016-07-17 06:00:00",244609,0.383,139,18.27,98.7,10.02608,0,863.0732,0,-2.603,3.104,190,20.47,20.21,1.512016,0.145,49.41,56.41,33.15,34.84
"2016-07-17 06:10:00",244610,0.375,115.1,18.42,99.9,36.63005,0,863.0549,0,-2.563,3.102,195,20.41,20.18,5.987443,0.164,49.41,56.41,33.15,34.84
"2016-07-17 06:20:00",244611,0.104,30.55,18.57,99.7,10.56053,0,863.1266,0,-2.078,3.098,195,20.4,20.16,2.069061,0.198,49.35,56.41,33.14,34.84
"2016-07-17 06:30:00",244612,0.186,152,18.35,100,12.5336,0,863.223,0,-1.881,3.097,201,20.35,20.14,2.345711,0.191,49.41,56.41,33.15,34.84
"2016-07-17 06:40:00",244613,0.221,273.8,18.28,100,12.06594,0,863.2941,0,-1.261,3.091,210,20.32,20.14,2.239613,0.202,49.41,56.41,33.15,34.84
"2016-07-17 06:50:00",244614,0.163,37.52,18.14,100,17.1321,1,863.4915,0,0.74,3.073,228,20.32,20.14,2.538991,0.157,49.35,56.41,33.14,34.84
"2016-07-17 07:00:00",244615,0.341,152.2,17.78,100,23.25942,1,863.4319,0,0.358,3.079,269,20.34,20.09,2.819418,0.121,49.35,56.41,33.14,34.84
"2016-07-17 07:10:00",244616,0.67,140.3,17.6,100,34.4961,0,863.3635,0,-0.515,3.087,216,20.36,20.07,4.471658,0.13,49.35,56.41,33.14,34.84
"2016-07-17 07:20:00",244617,0.444,135.1,17.83,100,40.6352,0.5,863.4808,0,-0.316,3.083,200,20.33,20.07,5.494834,0.136,49.41,56.41,33.15,34.84
"2016-07-17 07:30:00",244618,0.254,118.9,18.08,100,39.79412,0,863.5416,0,0.439,3.075,205,20.32,20.09,5.3622,0.135,49.41,56.41,33.15,34.84
"2016-07-17 07:40:00",244619,0.27,122,18.27,100,52.9645,0,863.5826,0,0.504,3.073,210,20.32,20.1,7.029599,0.133,49.46,56.41,33.16,34.84
"2016-07-17 07:50:00",244620,0.225,65.46,18.27,100,46.4363,0,863.5878,0,0.391,3.075,200,20.3,20.12,5.907895,0.127,49.41,56.41,33.15,34.84
"2016-07-17 08:00:00",244621,0.201,4.258,18.19,100,41.65708,0,863.6486,0,0.233,3.077,199,20.24,20.14,5.104512,0.122,49.46,56.41,33.16,34.84
"2016-07-17 08:10:00",244622,0.114,19.36,18.03,100,28.80505,0,863.7763,0,0.215,3.079,200,20.23,20.14,3.372691,0.117,49.46,56.41,33.16,34.84
"2016-07-17 08:20:00",244623,0.227,320,17.58,100,26.75344,0,863.8225,0,0.143,3.082,199,20.25,20.14,3.156688,0.118,49.51,56.41,33.18,34.84
"2016-07-17 08:30:00",244624,0.249,80,17.38,100,68.89787,0,863.8353,0,0.611,3.077,208,20.31,20.14,8.852367,0.129,49.51,56.41,33.18,34.84
"2016-07-17 08:40:00",244625,0.115,138.3,17.57,100,55.15367,0,863.8344,0,0.675,3.075,208,20.31,20.13,6.722646,0.123,49.51,56.41,33.18,34.84
"2016-07-17 08:50:00",244626,0.089,79.34,17.91,100,37.86435,0,863.8303,0,0.44,3.075,205,20.32,20.13,4.573976,0.122,49.57,56.41,33.19,34.84
"2016-07-17 09:00:00",244627,0,0,18.2,100,70.78831,0.5,863.8453,0,-0.847,3.087,233,20.32,20.12,8.158878,0.115,49.57,56.41,33.19,34.84
"2016-07-17 09:10:00",244628,0.115,86.4,18.33,100,57.06244,1.5,864.032,0,-2.084,3.099,241,20.31,20.09,5.960808,0.105,49.57,56.41,33.19,34.84
"2016-07-17 09:20:00",244629,0.12,124.7,18.25,100,64.16073,1,863.93,0,-0.091,3.079,234,20.31,20.05,6.968843,0.108,49.62,56.41,33.2,34.84
"2016-07-17 09:30:00",244630,0.15,130.2,18.38,100,53.73049,0,863.9722,0,0.711,3.071,268,20.32,20.02,5.972271,0.111,49.9,56.41,33.27,34.84
"2016-07-17 09:40:00",244631,0.183,125.9,18.36,100,56.92218,0,864.038,0,0.551,3.073,268,20.32,19.97,6.919688,0.121,50.17,56.46,33.34,34.86
"2016-07-17 09:50:00",244632,0.743,147.3,18.45,100,193.3699,0,863.8155,0,-3.312,3.109,188,20.32,19.98,25.2497,0.131,50.33,56.52,33.38,34.87
"2016-07-17 10:00:00",244633,0.536,162.1,18.73,100,132.9609,0,863.8133,0,-0.431,3.08,265,20.32,19.97,17.33707,0.13,50.5,56.58,33.42,34.88
"2016-07-17 10:10:00",244634,0.142,199.3,18.92,100,83.85775,0,863.8027,0,-2.59,3.1,201,20.31,19.97,10.48911,0.125,50.5,56.58,33.42,34.88
"2016-07-17 10:20:00",244635,0.113,107,19.04,100,96.20189,0,863.7941,0,-0.595,3.08,250,20.3,19.96,11.73956,0.122,50.55,56.7,33.43,34.91
"2016-07-17 10:30:00",244636,0.18,37.56,19.02,100,56.8228,0,863.8308,0,-0.423,3.079,207,20.31,19.97,6.047974,0.104,50.55,56.75,33.43,34.93
"2016-07-17 10:40:00",244637,0.193,14.25,18.66,100,20.67279,0,863.9695,0,-1.249,3.09,203,20.31,19.98,1.962934,0.093,50.55,56.87,33.43,34.95
"2016-07-17 10:50:00",244638,0.164,44.72,18.39,100,56.98728,0.5,864.0197,0,-0.444,3.082,204,20.31,20.04,6.430644,0.113,50.5,56.93,33.42,34.97
"2016-07-17 11:00:00",244639,0.053,109,18.52,100,99.34105,0,864.0386,0,-0.099,3.078,205,20.3,20.04,12.07669,0.121,50.55,56.93,33.43,34.97
"2016-07-17 11:10:00",244640,0.334,121.3,18.59,100,116.7295,0,864.0453,0,-0.074,3.078,209,20.26,20.02,14.24393,0.122,50.55,56.98,33.43,34.98
"2016-07-17 11:20:00",244641,0.458,131.6,18.61,100,129.7861,0,864.0464,0,-0.148,3.078,205,20.23,20.01,16.11219,0.124,50.55,57.04,33.43,34.99
"2016-07-17 11:30:00",244642,0.252,146.4,18.75,100,90.21159,0,864.0472,0,0.892,3.067,221,20.22,20,10.82622,0.12,50.55,57.1,33.43,35.01
"2016-07-17 11:40:00",244643,0.283,100.1,18.84,100,133.1642,0,864.0403,0,-0.497,3.08,203,20.22,19.97,16.26781,0.122,50.55,57.1,33.43,35.01
"2016-07-17 11:50:00",244644,0.106,115.6,19.03,100,114.0539,0,864.0375,0,0.526,3.069,204,20.22,19.97,13.11861,0.114,50.5,57.16,33.42,35.02
"2016-07-17 12:00:00",244645,0.123,79.51,19.05,100,60.00786,0,864.0775,0,1.261,3.063,221,20.22,19.96,6.593404,0.11,50.55,57.22,33.43,35.03
"2016-07-17 12:10:00",244646,0.463,132.4,19.04,100,204.3814,0,863.9621,0,0.718,3.068,207,20.22,19.96,26.61656,0.13,50.55,57.22,33.43,35.03
"2016-07-17 12:20:00",244647,0.736,144.9,19.14,100,329.5493,0,863.8416,0,1.843,3.056,244,20.24,19.96,42.99445,0.13,50.55,57.27,33.43,35.05
"2016-07-17 12:30:00",244648,0.579,135.8,19.27,100,149.012,0,863.7867,0,0.867,3.065,225,20.25,19.95,18.24937,0.122,50.55,57.22,33.43,35.03
"2016-07-17 12:40:00",244649,0.631,142.7,19.21,100,125.0614,0,863.7588,0,1.33,3.061,223,20.24,19.95,15.16476,0.119,50.5,57.27,33.42,35.05
"2016-07-17 12:50:00",244650,0.684,137.2,19.26,100,176.3277,0,863.5992,0,1.653,3.057,223,20.24,19.94,23.08375,0.13,50.5,57.33,33.42,35.06
"2016-07-17 13:00:00",244651,0.779,127.6,19.43,100,182.8506,0,863.5328,0,1.4,3.059,220,20.29,19.93,24.012,0.129,50.5,57.33,33.42,35.06
"2016-07-17 13:10:00",244652,0.183,123.2,19.5,100,85.38006,0,863.5259,0,1.25,3.06,217,20.29,19.91,10.72703,0.125,50.5,57.33,33.42,35.06
"2016-07-17 13:20:00",244653,0.467,135.3,19.54,100,169.1436,0,863.3538,0,1.103,3.061,224,20.29,19.87,22.51104,0.132,50.5,57.39,33.42,35.07
"2016-07-17 13:30:00",244654,0.46,144.5,19.78,100,202.9135,0,863.281,0,1.295,3.058,238,20.28,19.87,27.40236,0.135,50.44,57.39,33.41,35.07
"2016-07-17 13:40:00",244655,0.276,156,20.02,100,216.8796,0,863.2733,0,1.13,3.058,228,20.32,19.86,29.26706,0.135,50.44,57.33,33.41,35.06
"2016-07-17 13:50:00",244656,0.213,148,20.17,100,148.7454,0,863.2725,0,0.639,3.063,222,20.36,19.86,18.6686,0.125,50.44,57.39,33.41,35.07
"2016-07-17 14:00:00",244657,0.117,130.2,20.16,100,89.89944,0,863.2681,0,0.591,3.063,226,20.37,19.85,10.40071,0.115,50.44,57.39,33.41,35.07
"2016-07-17 14:10:00",244658,0.101,49.53,20.18,100,156.8546,0,863.2597,0,0.94,3.059,273,20.37,19.85,20.65759,0.13,50.44,57.39,33.41,35.07
"2016-07-17 14:20:00",244659,0.195,153.2,20.2,100,104.376,0,863.2597,0,0.452,3.064,223,20.35,19.83,12.34014,0.117,50.44,57.39,33.41,35.07
"2016-07-17 14:30:00",244660,0.064,85.1,20.41,100,149.3107,0,863.2365,0,1.656,3.051,229,20.38,19.83,19.29597,0.128,50.44,57.45,33.41,35.09
"2016-07-17 14:40:00",244661,0.171,81.3,20.57,100,167.5536,0,863.1733,0,1.275,3.054,221,20.43,19.83,22.79708,0.135,50.44,57.45,33.41,35.09
"2016-07-17 14:50:00",244662,0.242,150.7,20.54,100,168.3735,0,863.1312,0,0.831,3.059,248,20.42,19.83,22.08082,0.129,50.39,57.39,33.39,35.07
"2016-07-17 15:00:00",244663,0.179,179.1,20.4,100,134.2982,0,863.1017,0,1.398,3.054,243,20.4,19.82,17.13234,0.126,50.39,57.39,33.39,35.07
"2016-07-17 15:10:00",244664,0.269,117.9,20.55,100,205.5287,0,863.207,0,1.705,3.049,255,20.44,19.82,29.63477,0.14,50.39,57.45,33.39,35.09
"2016-07-17 15:20:00",244665,0.232,168.4,21.13,100,396.0375,0,863.0322,0,0.81,3.056,244,20.51,19.79,51.6026,0.129,50.44,57.51,33.41,35.1
"2016-07-17 15:30:00",244666,0.214,132,20.96,100,133.6735,0,863.0196,0,2.116,3.045,288,20.48,19.78,15.99244,0.116,50.39,57.45,33.39,35.09
"2016-07-17 15:40:00",244667,0.111,133,20.86,100,86.3456,0,863.0196,0,1.497,3.051,258,20.48,19.82,10.30156,0.115,50.33,57.45,33.38,35.09
"2016-07-17 15:50:00",244668,0.033,244.1,20.77,100,109.3613,0,863.0281,0,1.708,3.049,284,20.47,19.82,13.54814,0.123,50.39,57.45,33.39,35.09
"2016-07-17 16:00:00",244669,0.121,169,20.66,100,114.0746,0,863.0576,0,-2.807,3.093,196,20.46,19.81,14.57839,0.124,50.39,57.45,33.39,35.09
"2016-07-17 16:10:00",244670,0.168,125.9,20.67,100,98.23119,0,863.0743,0,3.046,3.037,419,20.57,19.81,12.40748,0.126,50.39,57.45,33.39,35.09
"2016-07-17 16:20:00",244671,0.339,132.2,20.58,100,179.9294,0,863.0238,0,1.279,3.054,230,20.58,19.82,25.71359,0.139,50.33,57.45,33.38,35.09
"2016-07-17 16:30:00",244672,0.155,151.6,20.93,100,193.9021,0,863.0238,0,1.099,3.053,227,20.58,19.83,26.91132,0.138,50.33,57.45,33.38,35.09
"2016-07-17 16:40:00",244673,0.111,5.086,21.02,98.5,69.61475,0,863.0449,0,1.827,3.048,271,20.67,19.83,7.770767,0.1,50.33,57.45,33.38,35.09
"2016-07-17 16:50:00",244674,0.019,20.07,20.66,100,31.62856,0,863.0681,0,1.37,3.054,235,20.7,19.83,2.905995,0.075,50.33,57.45,33.38,35.09
"2016-07-17 17:00:00",244675,0,0,20.64,100,121.1644,0,863.0281,0,2.428,3.042,387,20.7,19.83,16.54539,0.134,50.33,57.45,33.38,35.09
"2016-07-17 17:10:00",244676,0,0,20.83,100,60.20703,0,863.0302,0,1.703,3.049,337,20.69,19.83,7.107673,0.114,50.28,57.45,33.37,35.09
"2016-07-17 17:20:00",244677,0.056,31.49,20.62,100,23.6866,0,863.0617,0,-4.101,3.107,174,20.67,19.83,1.924669,0.077,50.33,57.45,33.38,35.09
"2016-07-17 17:30:00",244678,0.062,20.81,20.42,100,64.42066,0,863.0933,0,2.347,3.045,420,20.73,19.83,8.536194,0.126,50.28,57.45,33.37,35.09
"2016-07-17 17:40:00",244679,0,0,20.49,100,78.94125,0,863.1334,0,1.168,3.055,302,20.79,19.84,10.40421,0.132,50.28,57.45,33.37,35.09
"2016-07-17 17:50:00",244680,0.234,11.73,20.52,100,80.94911,0,863.2323,0,1.079,3.057,256,20.79,19.84,10.9422,0.135,50.28,57.45,33.37,35.09
"2016-07-17 18:00:00",244681,0.236,341.2,20.42,100,46.51038,0,863.167,0,1.101,3.057,241,20.79,19.84,5.634023,0.119,50.28,57.45,33.37,35.09
"2016-07-17 18:10:00",244682,0.14,46.58,20.31,100,24.41064,0,863.2555,0,1.114,3.058,233,20.79,19.84,2.690103,0.11,50.28,57.45,33.37,35.09
"2016-07-17 18:20:00",244683,0.031,292.4,20.14,100,21.53811,0,863.2733,0,0.978,3.06,231,20.79,19.84,2.155872,0.098,50.28,57.45,33.37,35.09
"2016-07-17 18:30:00",244684,0.172,4.354,20.03,100,11.52971,0,863.307,0,0.811,3.062,249,20.81,19.84,0.8904064,0.076,50.28,57.45,33.37,35.09
"2016-07-17 18:40:00",244685,0.017,358.9,20.03,100,9.541424,0,863.5046,0,0.71,3.063,267,20.86,19.85,1.185963,0.117,50.28,57.45,33.37,35.09
"2016-07-17 18:50:00",244686,0.073,325.7,19.88,100,9.741842,0,863.5257,0,1.664,3.054,386,20.88,19.85,1.284479,0.125,50.28,57.45,33.37,35.09
"2016-07-17 19:00:00",244687,0.04,78.6,19.79,100,3.375642,0,863.6156,0,-2.797,3.098,207,20.89,19.85,0.2917543,0.075,50.28,57.45,33.37,35.09
"2016-07-17 19:10:00",244688,0.073,289.4,19.74,100,2.275346,0,863.7894,0,-3.893,3.109,183,20.9,19.85,0.1932428,0.082,50.22,57.45,33.35,35.09
"2016-07-17 19:20:00",244689,0.012,35.49,19.73,100,0.8488459,0,863.7834,0,-3.525,3.105,189,20.9,19.85,0.1023061,0.065,50.22,57.45,33.35,35.09
"2016-07-17 19:30:00",244690,0.049,79.11,19.7,100,0,0,863.784,0,0.456,3.067,336,20.9,19.85,0,0,50.28,57.45,33.37,35.09
"2016-07-17 19:40:00",244691,0.044,94.1,19.66,100,0,0,863.7796,0,-3.021,3.101,198,20.9,19.88,0,0,50.22,57.45,33.35,35.09
"2016-07-17 19:50:00",244692,0.008,108.4,19.55,100,0,0,863.7781,0,1.604,3.057,341,20.9,19.9,0,0,50.22,57.51,33.35,35.1
"2016-07-17 20:00:00",244693,0.019,88.6,19.47,100,0,0,863.7776,0,-0.26,3.075,273,20.88,19.93,0,0,50.22,57.45,33.35,35.09
"2016-07-17 20:10:00",244694,0,0,19.24,100,0,0,863.8008,0,-0.323,3.077,267,20.85,19.94,0,0,50.22,57.45,33.35,35.09
"2016-07-17 20:20:00",244695,0.032,70.14,19.11,100,0,0,864.0176,0,0.939,3.065,318,20.82,19.95,0,0,50.22,57.45,33.35,35.09
"2016-07-17 20:30:00",244696,0,0,19.07,100,0,0,864.0434,0,0.538,3.07,302,20.83,19.96,0,0,50.22,57.45,33.35,35.09
"2016-07-17 20:40:00",244697,0.03,115.9,18.87,100,0,0,864.0442,0,-3.451,3.109,191,20.83,19.96,0,0,50.22,57.45,33.35,35.09
"2016-07-17 20:50:00",244698,0,0,18.84,100,0,0,864.0911,0,-1.442,3.09,229,20.84,19.97,0,0,50.17,57.45,33.34,35.09
"2016-07-17 21:00:00",244699,0.002,118.1,18.76,100,0,0,864.0709,0,1.031,3.067,335,20.88,19.97,0,0,50.17,57.45,33.34,35.09
"2016-07-17 21:10:00",244700,0,0,18.52,100,0,0,864.1129,0,0.251,3.075,266,20.92,19.97,0.06063192,0,50.17,57.39,33.34,35.07
"2016-07-17 21:20:00",244701,0.017,255.9,18.5,100,0,0,864.3165,0,-1.268,3.089,237,20.89,19.97,0.3031613,0,50.17,57.39,33.34,35.07
"2016-07-17 21:30:00",244702,0,0,18.51,100,0,0,864.3323,0,-1.055,3.089,236,20.84,19.98,0.2008451,0,50.17,57.39,33.34,35.07
"2016-07-17 21:40:00",244703,0.06,215.1,18.16,100,0,0,864.3245,0,-0.18,3.081,229,20.77,19.97,0,0,50.17,57.39,33.34,35.07
"2016-07-17 21:50:00",244704,0.06,198.5,18.13,100,0.03537255,0,864.335,0,0.24,3.076,231,20.76,19.99,0.4054809,0.498,50.17,57.45,33.34,35.09
"2016-07-17 22:00:00",244705,0.034,315.5,18.51,100,0.0707451,0,864.3477,0,-0.108,3.078,227,20.76,20.03,0.8943317,0.82,50.17,57.45,33.34,35.09
"2016-07-17 22:10:00",244706,0.013,7.909,18.67,100,0,0,864.3279,0,0.408,3.073,238,20.8,20.04,0.6139057,0,50.11,57.45,33.33,35.09
"2016-07-17 22:20:00",244707,0.099,43.69,18.68,100,0.2318867,0,864.3324,0,0.24,3.076,233,20.81,20.04,0.41306,1.358,50.11,57.45,33.33,35.09
"2016-07-17 22:30:00",244708,0.035,0.83,18.35,100,0.05109369,0,864.3463,0,0.042,3.077,225,20.74,20.04,0.1781084,0.546,50.11,57.45,33.33,35.09
"2016-07-17 22:40:00",244709,0.089,3.88,18.57,100,0.2515337,0,864.3411,0,-0.152,3.078,232,20.67,20.03,0.4509473,1.736,50.11,57.45,33.33,35.09
"2016-07-17 22:50:00",244710,0.268,332.3,18.66,100,0.03537159,0,864.3358,0,-0.162,3.079,228,20.66,20,0.3258929,0.217,50.17,57.39,33.34,35.07
"2016-07-17 23:00:00",244711,0.279,308.7,18.52,100,0,0,864.3993,0,-1.61,3.093,233,20.67,20.01,0.2311597,0,50.17,57.39,33.34,35.07
"2016-07-17 23:10:00",244712,0.026,34.47,18.53,100,0,0,864.563,0,-1.507,3.092,218,20.67,20.01,0.3637948,0,50.17,57.39,33.34,35.07
"2016-07-17 23:20:00",244713,0.186,0.967,18.47,100,0,0,864.3738,0,-1.404,3.091,212,20.66,20.01,0.5191668,0,50.11,57.39,33.33,35.07
"2016-07-17 23:30:00",244714,0.358,228,18.47,100,0,0,864.3884,0,-1.412,3.092,220,20.6,20.01,0.5077984,0,50.11,57.39,33.33,35.07
"2016-07-17 23:40:00",244715,0.548,199.4,18.22,100,0,0,864.3561,0,-1.132,3.09,208,20.58,20,0.2273711,0,50.11,57.39,33.33,35.07
"2016-07-17 23:50:00",244716,0.52,175.3,18.06,100,0,0,864.3505,0,-0.336,3.083,226,20.59,20.01,0.07578966,0,50.11,57.39,33.33,35.07
